Weather in Glodeni

Moldova     47˚46′22″N   27˚30′44″E
temp.,
°C
wind,
m/s
gust,
m/s
humid.,
%
clouds,
%
prec.,
mm/h
press.,
hPa
HPBL,
m
30 november, mon
mon3023:00ne118768 0.0 102326
02:00nne228669 0.0 102432
05:00ne228699 0.0 102441
08:00−1˚nne228860 0.0 102546
11:00+2˚nne236530 0.0 1027492
14:00+3˚nnw456214 0.0 1026854
17:00+1˚nnw35770 0.0 1027145
20:00−1˚nnw36800 0.0 1028160
1 december, tue
tue123:00−1˚nnw24800 0.0 1028126
02:00−2˚n23810 0.0 1028114
05:00−2˚nnw23810 0.0 1028103
08:00−3˚n23810 0.0 1028122
11:00n34680 0.0 1027432
14:00+2˚n35610 0.0 1026575
17:00−1˚n34740 0.0 102678
20:00−2˚nne347818 0.0 1027101
2 december, wed
wed223:00−2˚n248886 0.0 1026168
02:00−2˚n239381 0.1 1026100
05:00−2˚n229674 0.0 102571
08:00−2˚nw119674 0.0 102532
11:00wnw118995 0.0 1025172
14:00+1˚nw118698 0.1 1024204
17:00−1˚ne119393 0.0 102423
20:00se239886 0.1 1024143
3 december, thu
thu323:00−1˚s229796 0.0 1024111
02:00s248987 0.0 1024191
05:00se248883 0.0 1023179
08:00se368591 0.0 1023351
11:00+1˚sse577490 0.0 1023777
14:00+1˚sse577395 0.0 1021748
17:00+2˚sse5108258 0.0 1021415
20:00+3˚se4118579 0.0 1021555
4 december, fri
fri423:00+4˚se61384100 0.0 1020599
02:00+5˚se71584100 0.0 1019628
05:00+5˚se7169044 0.0 1018498
08:00+5˚se8179127 0.0 1018496
11:00+7˚se9158672 0.0 1017861
14:00+8˚se9158585 0.0 1016843
17:00+8˚se91587100 0.0 1016676
20:00+7˚se91689100 0.1 1016721